This demonstration page uses our WeatherBlox Daily Observations layout. Learn more.

Left ArrowRight Arrow

34.74481, -87.66753

Hourly Observations for February 28, 2020

Temp ( °F °C ) Dew Point ( °F °C ) Humidity (%) Winds ( mph kmh ) Pressure ( in mb ) Visibility ( mi km ) Precip ( " mm )
12:53 am 00:53 Cloudy 41 5 27 -2.8 57 57 WSW 8 13 30.20 1023 10 16 0.00 0.00
1:53 am 01:53 Mostly Clear 38 3.3 27 -2.8 65 65 SW 7 11 30.18 1022 10 16 0.00 0.00
2:53 am 02:53 Partly Cloudy 39 3.9 27 -2.8 62 62 WSW 8 13 30.15 1021 10 16 0.00 0.00
3:53 am 03:53 Cloudy 40 4.4 27 -2.8 60 60 SW 7 11 30.14 1021 10 16 0.00 0.00
4:53 am 04:53 Cloudy 41 5 27 -2.8 57 57 WSW 8 13 30.13 1020 10 16 0.00 0.00
5:53 am 05:53 Cloudy 41 5 28 -2.2 60 60 WNW 5 7 30.14 1021 10 16 0.00 0.00
6:53 am 06:53 Cloudy 42 5.6 27 -2.8 55 55 WSW 10 17 30.14 1021 10 16 0.00 0.00
7:53 am 07:53 Cloudy 44 6.7 29 -1.7 55 55 W 10 17 30.14 1021 10 16 0.00 0.00
8:53 am 08:53 Mostly Cloudy 47 8.3 29 -1.7 50 50 W 18 30 30.14 1021 10 16 0.00 0.00
9:53 am 09:53 Cloudy 48 8.9 30 -1.1 50 50 NW 14 22 30.15 1021 10 16 0.00 0.00
10:53 am 10:53 Mostly Cloudy 49 9.4 32 0 52 52 WNW 17 28 30.16 1022 10 16 0.00 0.00
11:53 am 11:53 Cloudy 50 10 33 0.6 52 52 WNW 20 31 30.17 1022 10 16 0.00 0.00
12:53 pm 12:53 Mostly Cloudy 50 10 31 -0.6 48 48 NW 13 20 30.16 1022 10 16 0.00 0.00
1:53 pm 13:53 Mostly Sunny 52 11.1 31 -0.6 45 45 NW 8 13 30.14 1021 10 16 0.00 0.00
2:53 pm 14:53 Partly Cloudy 50 10 28 -2.2 43 43 NNW 10 17 30.15 1021 10 16 0.00 0.00
3:53 pm 15:53 Mostly Sunny 52 11.1 28 -2.2 40 40 WNW 12 19 30.15 1021 10 16 0.00 0.00
4:53 pm 16:53 Mostly Sunny 52 11.1 28 -2.2 40 40 WNW 13 20 30.15 1021 10 16 0.00 0.00
5:53 pm 17:53 Mostly Clear 49 9.4 27 -2.8 43 43 W 9 15 30.16 1021 10 16 0.00 0.00
6:53 pm 18:53 Mostly Cloudy 46 7.8 29 -1.7 51 51 WNW 6 9 30.17 1022 10 16 0.00 0.00
7:53 pm 19:53 Cloudy 47 8.3 30 -1.1 52 52 W 5 7 30.17 1022 10 16 0.00 0.00
8:53 pm 20:53 Mostly Cloudy 47 8.3 29 -1.7 50 50 W 9 15 30.18 1022 10 16 0.00 0.00
9:53 pm 21:53 Cloudy 47 8.3 29 -1.7 50 50 W 5 7 30.19 1023 10 16 0.00 0.00
10:53 pm 22:53 Cloudy 45 7.2 35 1.7 68 68 NW 8 13 30.21 1023 10 16 0.00 0.00
11:53 pm 23:53 Mostly Cloudy 41 5 35 1.7 79 79 W 6 9 30.19 1022 10 16 0.00 0.00

Powered by AerisWeather